Rocky Mount, NC

2:00 AM EDT on June 25, 2017 (GMT -0400)
Rocky Mount-Wilson Regional

Weather History for KRWI - May, 2014

Change the Weather History Date:

Saturday, May 3, 2014

  Actual Average Record
Temperature  
Mean Temperature 66 °F -  
Max Temperature 78 °F 77 °F 92 °F (1959)
Min Temperature 54 °F 51 °F 37 °F (1981)
Growing Degree Days 16 (Base 50)    
Moisture  
Dew Point 50 °F    
Average Humidity 65    
Maximum Humidity 93    
Minimum Humidity 33    
Precipitation  
Precipitation 0.00 in - - ()
Sea Level Pressure  
Sea Level Pressure 29.87 in    
Wind  
Wind Speed 4 mph (SW)    
Max Wind Speed 10 mph    
Max Gust Speed 18 mph    
Visibility 10 miles    
Events      
Averages and records for this station are not official NWS values.
T = Trace of Precipitation, MM = Missing Value Source: NWS Daily Summary

Daily Weather History Graph

Daily Weather History Graph

Search for Another Location

Airport or City:

Trip Planner

Search our weather history database for the weather conditions in past years. The results will help you decide how hot, cold, wet, or windy it might be!

Date:

Astronomy

May. 03, 2014 Rise Set
Actual Time 6:17 AM EDT 8:00 PM EDT
Civil Twilight 5:49 AM EDT 8:27 PM EDT
Nautical Twilight 5:16 AM EDT 9:01 PM EDT
Astronomical Twilight 4:41 AM EDT 9:36 PM EDT
Moon 9:46 AM EDT (5/3) No Moon Set
Length of Visible Light 14h 38m
Length of Day
13h 43m
Waxing Crescent, 19% of the Moon is Illuminated
May 3
Waxing Crescent
May 6
First Quarter
May 14
Full
May 21
Last Quarter
May 28
New

Hourly Weather History & Observations

Time (EDT) Temp. Dew Point Humidity Pressure Visibility Wind Dir Wind Speed Gust Speed Precip Events Conditions
12:53 AM 55.9 °F 51.1 °F 84% 29.90 in 10.0 mi South 3.5 mph - N/A   Scattered Clouds
1:53 AM 55.9 °F 51.1 °F 84% 29.89 in 10.0 mi Calm Calm - N/A   Mostly Cloudy
2:53 AM 55.0 °F 51.1 °F 86% 29.88 in 10.0 mi Calm Calm - N/A   Mostly Cloudy
3:53 AM 54.0 °F 51.1 °F 90% 29.88 in 10.0 mi Calm Calm - N/A   Scattered Clouds
4:53 AM 54.0 °F 52.0 °F 93% 29.88 in 10.0 mi South 3.5 mph - N/A   Scattered Clouds
5:53 AM 54.0 °F 51.1 °F 90% 29.88 in 10.0 mi SSW 3.5 mph - N/A   Scattered Clouds
6:53 AM 54.0 °F 51.1 °F 90% 29.90 in 10.0 mi South 4.6 mph - N/A   Clear
7:53 AM 57.9 °F 53.1 °F 84% 29.89 in 10.0 mi SSW 4.6 mph - N/A   Scattered Clouds
8:53 AM 60.1 °F 54.0 °F 80% 29.90 in 10.0 mi SW 4.6 mph - N/A   Partly Cloudy
9:53 AM 66.0 °F 54.0 °F 65% 29.89 in 10.0 mi SW 5.8 mph - N/A   Clear
10:53 AM 69.1 °F 52.0 °F 54% 29.89 in 10.0 mi WSW 5.8 mph - N/A   Clear
11:53 AM 72.0 °F 52.0 °F 49% 29.88 in 10.0 mi Variable 5.8 mph - N/A   Clear
12:53 PM 75.0 °F 51.1 °F 43% 29.87 in 10.0 mi SW 8.1 mph - N/A   Partly Cloudy
1:53 PM 75.0 °F 48.9 °F 40% 29.86 in 10.0 mi SW 10.4 mph 18.4 mph N/A   Mostly Cloudy
2:53 PM 75.0 °F 48.9 °F 40% 29.85 in 10.0 mi Variable 6.9 mph - N/A   Scattered Clouds
3:53 PM 77.0 °F 46.9 °F 34% 29.83 in 10.0 mi West 6.9 mph - N/A   Scattered Clouds
4:53 PM 77.0 °F 46.9 °F 34% 29.83 in 10.0 mi WSW 10.4 mph - N/A   Scattered Clouds
5:53 PM 75.9 °F 45.0 °F 33% 29.83 in 10.0 mi West 9.2 mph - N/A   Scattered Clouds
6:53 PM 73.9 °F 44.1 °F 34% 29.84 in 10.0 mi Variable 5.8 mph - N/A   Clear
7:53 PM 66.9 °F 48.9 °F 52% 29.86 in 10.0 mi South 3.5 mph - N/A   Clear
8:53 PM 59.0 °F 51.1 °F 75% 29.87 in 10.0 mi Calm Calm - N/A   Clear
9:53 PM 55.9 °F 50.0 °F 80% 29.88 in 10.0 mi Calm Calm - N/A   Clear
10:53 PM 55.9 °F 50.0 °F 80% 29.90 in 10.0 mi Calm Calm - N/A   Clear
11:53 PM 59.0 °F 46.9 °F 64% 29.91 in 10.0 mi SSW 5.8 mph - N/A   Clear